,,,PA_Meas_PMT16A,,PR_Meas_QMR101_102,,RH_Meas_QMH101,,SR_Meas_QMS101,,TA_Meas_QMH101,,GenWind,,GenWind,
date,time,status,PA,status,PR,status,RH,status,SR,status,TA,status,DirAvg,status,SpdAvg,
2010-07-05, 00:00:04,VALID,1004.66,VALID,0,VALID,79.882,VALID,0,VALID,27.6572,VALID,76,VALID,1.16836,
2010-07-05, 00:01:04,VALID,1004.68,VALID,0,VALID,79.9583,VALID,0.100563,VALID,27.6356,VALID,80,VALID,1.04219,
2010-07-05, 00:02:04,VALID,1004.67,VALID,0,VALID,80.1185,VALID,0.100563,VALID,27.6377,VALID,81,VALID,0.128125,
2010-07-05, 00:03:04,VALID,1004.64,VALID,0,VALID,80.2635,VALID,0,VALID,27.5577,VALID,29,VALID,0.403516,
2010-07-05, 00:04:04,VALID,1004.66,VALID,0,VALID,80.5228,VALID,0,VALID,27.5187,VALID,78,VALID,0.279297,
2010-07-05, 00:05:04,VALID,1004.63,VALID,0,VALID,80.6602,VALID,0,VALID,27.4602,VALID,93,VALID,1.11953,
2010-07-05, 00:06:04,VALID,1004.62,VALID,0,VALID,80.6296,VALID,0.100563,VALID,27.4992,VALID,74,VALID,1.25703,
2010-07-05, 00:07:04,VALID,1004.64,VALID,0,VALID,80.683,VALID,0.100563,VALID,27.4797,VALID,69,VALID,1.76875,
2010-07-05, 00:08:04,VALID,1004.66,VALID,0,VALID,80.8432,VALID,0.100563,VALID,27.4408,VALID,92,VALID,1.03203,
2010-07-05, 00:09:04,VALID,1004.67,VALID,0,VALID,81.0569,VALID,0,VALID,27.4018,VALID,37,VALID,0.810156,
2010-07-05, 00:10:04,VALID,1004.65,VALID,0,VALID,81.2399,VALID,0.100563,VALID,27.3628,VALID,35,VALID,0.455078,
2010-07-05, 00:11:04,VALID,1004.65,VALID,0,VALID,81.5832,VALID,0,VALID,27.3044,VALID,59,VALID,0.632422,
2010-07-05, 00:12:04,VALID,1004.63,VALID,0,VALID,81.5756,VALID,0.100563,VALID,27.2849,VALID,15,VALID,1.11211,
2010-07-05, 00:13:04,VALID,1004.63,VALID,0,VALID,81.3925,VALID,0,VALID,27.3238,VALID,89,VALID,1.71328,
2010-07-05, 00:14:04,VALID,1004.64,VALID,0,VALID,81.1179,VALID,0.100563,VALID,27.4039,VALID,76,VALID,0.787109,
2010-07-05, 00:15:04,VALID,1004.62,VALID,0,VALID,81.095,VALID,0.100563,VALID,27.4018,VALID,51,VALID,0.244531,
2010-07-05, 00:16:04,VALID,1004.6,VALID,0,VALID,81.2934,VALID,0.100563,VALID,27.3628,VALID,105,VALID,0.774609,
2010-07-05, 00:17:04,VALID,1004.58,VALID,0,VALID,81.3315,VALID,0,VALID,27.3218,VALID,39,VALID,0.896484,
2010-07-05, 00:18:04,VALID,1004.59,VALID,0,VALID,81.4536,VALID,0,VALID,27.3044,VALID,80,VALID,0.553906,
2010-07-05, 00:19:04,VALID,1004.59,VALID,0,VALID,81.5985,VALID,0.100563,VALID,27.2849,VALID,37,VALID,0.946484,
2010-07-05, 00:20:04,VALID,1004.57,VALID,0,VALID,81.6824,VALID,0.100563,VALID,27.2459,VALID,4,VALID,1.84141,
2010-07-05, 00:21:04,VALID,1004.63,VALID,0,VALID,81.7282,VALID,0,VALID,27.2869,VALID,64,VALID,0.805469,
2010-07-05, 00:22:04,VALID,1004.64,VALID,0,VALID,81.7282,VALID,0.100563,VALID,27.2459,VALID,86,VALID,1.10625,
2010-07-05, 00:23:04,VALID,1004.65,VALID,0,VALID,81.6443,VALID,0.100563,VALID,27.2654,VALID,103,VALID,1.20977,
2010-07-05, 00:24:04,VALID,1004.64,VALID,0,VALID,81.6367,VALID,0,VALID,27.2849,VALID,76,VALID,0.646484,
2010-07-05, 00:25:04,VALID,1004.63,VALID,0,VALID,81.5146,VALID,0,VALID,27.3238,VALID,78,VALID,1.63672,
2010-07-05, 00:26:04,VALID,1004.61,VALID,0,VALID,81.2628,VALID,0.100563,VALID,27.3823,VALID,77,VALID,1.27383,
2010-07-05, 00:27:04,VALID,1004.62,VALID,0,VALID,81.2018,VALID,0.100563,VALID,27.4018,VALID,76,VALID,0.823438,
2010-07-05, 00:28:04,VALID,1004.64,VALID,0,VALID,81.0874,VALID,0,VALID,27.4213,VALID,70,VALID,1.17891,
2010-07-05, 00:29:04,VALID,1004.66,VALID,0,VALID,81.0797,VALID,0.100563,VALID,27.4213,VALID,90,VALID,1.40898,
2010-07-05, 00:30:04,VALID,1004.64,VALID,0,VALID,81.0874,VALID,0.100563,VALID,27.4213,VALID,84,VALID,1.21172,
2010-07-05, 00:31:04,VALID,1004.63,VALID,0,VALID,81.0645,VALID,0.100563,VALID,27.3997,VALID,80,VALID,1.08086,
2010-07-05, 00:32:04,VALID,1004.67,VALID,0,VALID,81.156,VALID,0,VALID,27.4213,VALID,63,VALID,1.63828,
2010-07-05, 00:33:04,VALID,1004.63,VALID,0,VALID,81.2934,VALID,0.100563,VALID,27.3823,VALID,32,VALID,1.29297,
2010-07-05, 00:34:04,VALID,1004.6,VALID,0,VALID,81.3849,VALID,0.100563,VALID,27.3628,VALID,97,VALID,1.54766,
2010-07-05, 00:35:04,VALID,1004.63,VALID,0,VALID,81.4459,VALID,0.100563,VALID,27.3649,VALID,63,VALID,0.349609,
2010-07-05, 00:36:04,VALID,1004.63,VALID,0,VALID,81.4536,VALID,0.100563,VALID,27.2828,VALID,10,VALID,0.651172,
2010-07-05, 00:37:04,VALID,1004.61,VALID,0,VALID,81.6367,VALID,0.100563,VALID,27.2849,VALID,65,VALID,0.791016,
2010-07-05, 00:38:04,VALID,1004.55,VALID,0,VALID,81.8426,VALID,0.100563,VALID,27.2459,VALID,50,VALID,0.348828,
2010-07-05, 00:39:04,VALID,1004.58,VALID,0,VALID,82.1783,VALID,0,VALID,27.1464,VALID,47,VALID,0.441406,
2010-07-05, 00:40:04,VALID,1004.57,VALID,0,VALID,82.575,VALID,0.100563,VALID,27.0706,VALID,24,VALID,0.73125,
2010-07-05, 00:41:04,VALID,1004.57,VALID,0,VALID,82.9641,VALID,0.100563,VALID,27.0336,VALID,29,VALID,0.708984,
2010-07-05, 00:42:04,VALID,1004.52,VALID,0,VALID,83.2235,VALID,0.100563,VALID,26.9732,VALID,47,VALID,1.54922,
2010-07-05, 00:43:04,VALID,1004.54,VALID,0,VALID,83.2387,VALID,0.100563,VALID,27.0142,VALID,36,VALID,1.36953,
2010-07-05, 00:44:04,VALID,1004.51,VALID,0,VALID,83.1548,VALID,0,VALID,26.9752,VALID,17,VALID,0.782812,
2010-07-05, 00:45:04,VALID,1004.5,VALID,0,VALID,83.521,VALID,0.100563,VALID,26.8952,VALID,360,VALID,0.801562,
2010-07-05, 00:46:04,VALID,1004.46,VALID,0,VALID,83.7575,VALID,0.100563,VALID,26.8563,VALID,21,VALID,1.06641,
2010-07-05, 00:47:04,VALID,1004.48,VALID,0,VALID,83.7498,VALID,0,VALID,26.8368,VALID,18,VALID,0.894141,
2010-07-05, 00:48:04,VALID,1004.44,VALID,0,VALID,84.1237,VALID,0,VALID,26.8193,VALID,11,VALID,1.01406,
2010-07-05, 00:49:04,VALID,1004.45,VALID,0,VALID,84.2839,VALID,0,VALID,26.7804,VALID,25,VALID,1.01367,
2010-07-05, 00:50:04,VALID,1004.48,VALID,0,VALID,84.322,VALID,0.100563,VALID,26.7783,VALID,17,VALID,0.803906,
2010-07-05, 00:51:04,VALID,1004.46,VALID,0,VALID,84.1923,VALID,0.100563,VALID,26.7783,VALID,20,VALID,0.251563,
2010-07-05, 00:52:04,VALID,1004.44,VALID,0,VALID,84.1542,VALID,0,VALID,26.7783,VALID,31,VALID,0.380859,
2010-07-05, 00:53:04,VALID,1004.46,VALID,0,VALID,84.2534,VALID,0,VALID,26.7589,VALID,55,VALID,0.677734,
2010-07-05, 00:54:04,VALID,1004.45,VALID,0,VALID,84.4059,VALID,0.100563,VALID,26.7783,VALID,39,VALID,0.342578,
2010-07-05, 00:55:04,VALID,1004.46,VALID,0,VALID,84.4746,VALID,0,VALID,26.8563,VALID,99,VALID,1.25469,
2010-07-05, 00:56:04,VALID,1004.42,VALID,0,VALID,84.0703,VALID,0.100563,VALID,26.8757,VALID,62,VALID,0.59375,
2010-07-05, 00:57:04,VALID,1004.41,VALID,0,VALID,84.0931,VALID,0.100563,VALID,26.8757,VALID,32,VALID,0.600781,
2010-07-05, 00:58:04,VALID,1004.34,VALID,0,VALID,84.2152,VALID,0.100563,VALID,26.8757,VALID,9,VALID,1.16016,
2010-07-05, 00:59:04,VALID,1004.33,VALID,0,VALID,84.0855,VALID,0.100563,VALID,26.9147,VALID,48,VALID,0.821875,
2010-07-05, 01:00:04,VALID,1004.29,VALID,0,VALID,83.849,VALID,0.100563,VALID,26.9321,VALID,31,VALID,0.444922,
2010-07-05, 01:01:04,VALID,1004.3,VALID,0,VALID,83.9101,VALID,0,VALID,26.9557,VALID,60,VALID,1.10703,
2010-07-05, 01:02:04,VALID,1004.3,VALID,0,VALID,83.7117,VALID,0,VALID,26.9772,VALID,27,VALID,0.269922,
2010-07-05, 01:03:04,VALID,1004.29,VALID,0,VALID,83.8414,VALID,0,VALID,26.9167,VALID,39,VALID,0.286719,
2010-07-05, 01:04:04,VALID,1004.28,VALID,0,VALID,83.8795,VALID,0,VALID,26.9167,VALID,28,VALID,0.0652344,
2010-07-05, 01:05:04,VALID,1004.24,VALID,0,VALID,84.0245,VALID,0,VALID,26.8973,VALID,28,VALID,0.0957031,
2010-07-05, 01:06:04,VALID,1004.24,VALID,0,VALID,84.116,VALID,0,VALID,26.8973,VALID,20,VALID,0.401563,
2010-07-05, 01:07:04,VALID,1004.23,VALID,0,VALID,84.1389,VALID,0,VALID,26.9362,VALID,95,VALID,0.966406,
2010-07-05, 01:08:04,VALID,1004.23,VALID,0,VALID,84.0016,VALID,0,VALID,26.9557,VALID,84,VALID,1.32031,
2010-07-05, 01:09:04,VALID,1004.23,VALID,0,VALID,83.9329,VALID,0,VALID,26.9947,VALID,97,VALID,1.16133,
2010-07-05, 01:10:04,VALID,1004.29,VALID,0,VALID,83.8414,VALID,0,VALID,27.0552,VALID,97,VALID,1.01094,
2010-07-05, 01:11:04,VALID,1004.27,VALID,0,VALID,83.6964,VALID,0,VALID,27.0531,VALID,76,VALID,0.63125,
2010-07-05, 01:12:04,VALID,1004.29,VALID,0,VALID,83.6125,VALID,0,VALID,27.0726,VALID,90,VALID,1.96992,
2010-07-05, 01:13:04,VALID,1004.25,VALID,0,VALID,83.521,VALID,0,VALID,27.1116,VALID,92,VALID,1.56953,
2010-07-05, 01:14:04,VALID,1004.26,VALID,0,VALID,83.2311,VALID,0,VALID,27.1506,VALID,115,VALID,1.22539,
2010-07-05, 01:15:04,VALID,1004.2,VALID,0,VALID,83.0938,VALID,0,VALID,27.17,VALID,91,VALID,0.871094,
2010-07-05, 01:16:04,VALID,1004.17,VALID,0,VALID,83.0785,VALID,0,VALID,27.1485,VALID,74,VALID,1.82891,
2010-07-05, 01:17:04,VALID,1004.17,VALID,0,VALID,82.9259,VALID,0,VALID,27.1875,VALID,93,VALID,0.874219,
2010-07-05, 01:18:04,VALID,1004.15,VALID,0,VALID,82.8268,VALID,0,VALID,27.2285,VALID,92,VALID,2.20977,
2010-07-05, 01:19:04,VALID,1004.19,VALID,0,VALID,82.5445,VALID,0,VALID,27.3085,VALID,67,VALID,0.926172,
2010-07-05, 01:20:04,VALID,1004.23,VALID,0,VALID,82.4377,VALID,0,VALID,27.2869,VALID,110,VALID,0.658203,
2010-07-05, 01:21:04,VALID,1004.19,VALID,0,VALID,82.4606,VALID,0,VALID,27.2869,VALID,109,VALID,0.893359,
2010-07-05, 01:22:04,VALID,1004.16,VALID,0,VALID,82.5445,VALID,0,VALID,27.248,VALID,95,VALID,0.591797,
2010-07-05, 01:23:04,VALID,1004.14,VALID,0,VALID,82.5216,VALID,0,VALID,27.248,VALID,94,VALID,1.34453,
2010-07-05, 01:24:04,VALID,1004.17,VALID,0,VALID,82.5903,VALID,0,VALID,27.248,VALID,96,VALID,1.29727,
2010-07-05, 01:25:04,VALID,1004.14,VALID,0,VALID,82.6437,VALID,0,VALID,27.2306,VALID,83,VALID,0.862891,
2010-07-05, 01:26:04,VALID,1004.16,VALID,0,VALID,82.7505,VALID,0,VALID,27.1895,VALID,66,VALID,1.17852,
2010-07-05, 01:27:04,VALID,1004.12,VALID,0,VALID,82.8649,VALID,0,VALID,27.17,VALID,23,VALID,0.774609,
2010-07-05, 01:28:04,VALID,1004.15,VALID,0,VALID,82.9717,VALID,0,VALID,27.129,VALID,85,VALID,0.882422,
2010-07-05, 01:29:04,VALID,1004.09,VALID,0,VALID,83.0098,VALID,0,VALID,27.1331,VALID,107,VALID,1.36875,
2010-07-05, 01:30:04,VALID,1004.1,VALID,0,VALID,83.0098,VALID,0,VALID,27.1311,VALID,60,VALID,0.835156,
2010-07-05, 01:31:04,VALID,1004.15,VALID,0,VALID,83.1777,VALID,0,VALID,27.0726,VALID,32,VALID,0.66875,
2010-07-05, 01:32:04,VALID,1004.14,VALID,0,VALID,83.3913,VALID,0,VALID,27.0336,VALID,86,VALID,0.603906,
2010-07-05, 01:33:04,VALID,1004.14,VALID,0,VALID,83.6049,VALID,0,VALID,27.0162,VALID,109,VALID,0.849609,
2010-07-05, 01:34:04,VALID,1004.15,VALID,0,VALID,83.6659,VALID,0,VALID,26.9947,VALID,97,VALID,0.821875,
2010-07-05, 01:35:04,VALID,1004.15,VALID,0,VALID,83.7651,VALID,0,VALID,26.9752,VALID,101,VALID,0.877734,
2010-07-05, 01:36:04,VALID,1004.16,VALID,0,VALID,83.7956,VALID,0,VALID,26.9752,VALID,106,VALID,2.13203,
2010-07-05, 01:37:04,VALID,1004.15,VALID,0,VALID,83.7193,VALID,0,VALID,26.9752,VALID,83,VALID,0.603516,
2010-07-05, 01:38:04,VALID,1004.15,VALID,0,VALID,83.8414,VALID,0,VALID,26.9557,VALID,93,VALID,0.701563,
2010-07-05, 01:39:04,VALID,1004.12,VALID,0,VALID,83.9558,VALID,0,VALID,26.9362,VALID,94,VALID,1.42461,
2010-07-05, 01:40:04,VALID,1004.14,VALID,0,VALID,83.8948,VALID,0,VALID,26.9557,VALID,67,VALID,0.768359,
2010-07-05, 01:41:04,VALID,1004.13,VALID,0,VALID,83.9863,VALID,0,VALID,26.9362,VALID,84,VALID,0.668359,
2010-07-05, 01:42:04,VALID,1004.11,VALID,0,VALID,84.0092,VALID,0,VALID,26.9557,VALID,70,VALID,1.43477,
2010-07-05, 01:43:04,VALID,1004.09,VALID,0,VALID,83.8643,VALID,0,VALID,26.9752,VALID,35,VALID,1.08984,
2010-07-05, 01:44:04,VALID,1004.09,VALID,0,VALID,83.7727,VALID,0,VALID,27.0162,VALID,18,VALID,0.533984,
2010-07-05, 01:45:04,VALID,1004.08,VALID,0,VALID,83.7117,VALID,0,VALID,26.9947,VALID,60,VALID,0.296094,
2010-07-05, 01:46:04,VALID,1004.06,VALID,0,VALID,83.8033,VALID,0,VALID,26.9947,VALID,63,VALID,0.517969,
2010-07-05, 01:47:04,VALID,1004.03,VALID,0,VALID,83.8795,VALID,0,VALID,26.9537,VALID,61,VALID,0.553125,
2010-07-05, 01:48:04,VALID,1004.02,VALID,0,VALID,83.8872,VALID,0,VALID,26.9752,VALID,73,VALID,0.664063,
2010-07-05, 01:49:04,VALID,1004,VALID,0,VALID,83.9482,VALID,0.100563,VALID,26.9342,VALID,29,VALID,1.19687,
2010-07-05, 01:50:04,VALID,1003.98,VALID,0,VALID,83.9253,VALID,0,VALID,26.9537,VALID,68,VALID,0.344141,
2010-07-05, 01:51:04,VALID,1003.96,VALID,0,VALID,83.9711,VALID,0,VALID,26.9342,VALID,115,VALID,1.0375,
2010-07-05, 01:52:04,VALID,1003.98,VALID,0,VALID,84.0474,VALID,0,VALID,26.9557,VALID,85,VALID,0.864844,
2010-07-05, 01:53:04,VALID,1003.94,VALID,0,VALID,84.1237,VALID,0,VALID,26.9147,VALID,73,VALID,0.591016,
2010-07-05, 01:54:04,VALID,1003.93,VALID,0,VALID,84.1389,VALID,0,VALID,26.9362,VALID,100,VALID,0.887891,
2010-07-05, 01:55:04,VALID,1003.95,VALID,0,VALID,84.0626,VALID,0,VALID,26.9342,VALID,91,VALID,0.845312,
2010-07-05, 01:56:04,VALID,1003.97,VALID,0,VALID,83.9635,VALID,0,VALID,26.9557,VALID,67,VALID,0.429688,
2010-07-05, 01:57:04,VALID,1003.95,VALID,0,VALID,83.9863,VALID,0,VALID,26.9342,VALID,49,VALID,0.521875,
2010-07-05, 01:58:04,VALID,1003.94,VALID,0,VALID,84.0703,VALID,0,VALID,26.9167,VALID,42,VALID,0.629687,
2010-07-05, 01:59:04,VALID,1003.93,VALID,0,VALID,84.2152,VALID,0.100563,VALID,26.8952,VALID,29,VALID,0.889063,
2010-07-05, 02:00:04,VALID,1003.87,VALID,0,VALID,84.3144,VALID,0.100563,VALID,26.8757,VALID,18,VALID,1.05156,
2010-07-05, 02:01:04,VALID,1003.85,VALID,0,VALID,84.3754,VALID,0,VALID,26.8583,VALID,23,VALID,1.11094,
2010-07-05, 02:02:04,VALID,1003.89,VALID,0,VALID,84.528,VALID,0,VALID,26.8388,VALID,54,VALID,0.281641,
2010-07-05, 02:03:04,VALID,1003.9,VALID,0,VALID,84.589,VALID,0,VALID,26.8193,VALID,92,VALID,0.821094,
2010-07-05, 02:04:04,VALID,1003.93,VALID,0,VALID,84.5738,VALID,0,VALID,26.8388,VALID,90,VALID,0.328516,
2010-07-05, 02:05:04,VALID,1003.92,VALID,0,VALID,84.5204,VALID,0,VALID,26.7783,VALID,65,VALID,0.399219,
2010-07-05, 02:06:04,VALID,1003.92,VALID,0,VALID,84.7187,VALID,0,VALID,26.7394,VALID,81,VALID,0.324219,
2010-07-05, 02:07:04,VALID,1003.92,VALID,0,VALID,84.9171,VALID,0,VALID,26.7219,VALID,93,VALID,0.755078,
2010-07-05, 02:08:04,VALID,1003.89,VALID,0,VALID,85.0925,VALID,0,VALID,26.7024,VALID,108,VALID,1.03516,
2010-07-05, 02:09:04,VALID,1003.86,VALID,0,VALID,85.1078,VALID,0,VALID,26.7024,VALID,87,VALID,0.541016,
2010-07-05, 02:10:04,VALID,1003.86,VALID,0,VALID,85.0925,VALID,0,VALID,26.6809,VALID,89,VALID,1.01563,
2010-07-05, 02:11:04,VALID,1003.84,VALID,0,VALID,85.0696,VALID,0,VALID,26.7024,VALID,90,VALID,0.892969,
2010-07-05, 02:12:04,VALID,1003.83,VALID,0,VALID,85.1536,VALID,0,VALID,26.683,VALID,102,VALID,1.13086,
2010-07-05, 02:13:04,VALID,1003.84,VALID,0,VALID,85.1536,VALID,0,VALID,26.7004,VALID,88,VALID,0.785937,
2010-07-05, 02:14:04,VALID,1003.86,VALID,0,VALID,85.0925,VALID,0,VALID,26.6809,VALID,40,VALID,0.711328,
2010-07-05, 02:15:04,VALID,1003.81,VALID,0,VALID,85.1154,VALID,0,VALID,26.7024,VALID,78,VALID,0.613281,
2010-07-05, 02:16:04,VALID,1003.87,VALID,0,VALID,85.0925,VALID,0,VALID,26.683,VALID,62,VALID,0.220703,
2010-07-05, 02:17:04,VALID,1003.86,VALID,0,VALID,85.2146,VALID,0,VALID,26.683,VALID,80,VALID,0.638672,
2010-07-05, 02:18:04,VALID,1003.87,VALID,0,VALID,85.3443,VALID,0,VALID,26.6635,VALID,113,VALID,0.609766,
2010-07-05, 02:19:04,VALID,1003.89,VALID,0,VALID,85.3519,VALID,0,VALID,26.642,VALID,84,VALID,0.248828,
2010-07-05, 02:20:04,VALID,1003.88,VALID,0,VALID,85.5121,VALID,0,VALID,26.6225,VALID,93,VALID,0.983203,
2010-07-05, 02:21:04,VALID,1003.86,VALID,0,VALID,85.535,VALID,0,VALID,26.685,VALID,104,VALID,1.17031,
2010-07-05, 02:22:04,VALID,1003.86,VALID,0,VALID,85.3672,VALID,0,VALID,26.683,VALID,63,VALID,0.44375,
2010-07-05, 02:23:04,VALID,1003.86,VALID,0,VALID,85.4435,VALID,0,VALID,26.6635,VALID,68,VALID,0.581641,
2010-07-05, 02:24:04,VALID,1003.86,VALID,0,VALID,85.4892,VALID,0,VALID,26.6635,VALID,103,VALID,1.39258,
2010-07-05, 02:25:04,VALID,1003.87,VALID,0,VALID,85.4358,VALID,0,VALID,26.7024,VALID,43,VALID,0.539063,
2010-07-05, 02:26:04,VALID,1003.86,VALID,0,VALID,85.329,VALID,0,VALID,26.7589,VALID,74,VALID,0.848437,
2010-07-05, 02:27:04,VALID,1003.85,VALID,0,VALID,85.062,VALID,0,VALID,26.7804,VALID,44,VALID,1.0082,
2010-07-05, 02:28:04,VALID,1003.85,VALID,0,VALID,85.0849,VALID,0,VALID,26.7783,VALID,92,VALID,1.21992,
2010-07-05, 02:29:04,VALID,1003.78,VALID,0,VALID,84.9247,VALID,0,VALID,26.8193,VALID,66,VALID,0.945313,
2010-07-05, 02:30:04,VALID,1003.8,VALID,0,VALID,84.8179,VALID,0,VALID,26.8173,VALID,48,VALID,0.230078,
2010-07-05, 02:31:04,VALID,1003.77,VALID,0,VALID,84.9018,VALID,0,VALID,26.7589,VALID,53,VALID,0.991797,
2010-07-05, 02:32:04,VALID,1003.79,VALID,0,VALID,84.9781,VALID,0.100563,VALID,26.7804,VALID,89,VALID,0.415234,
2010-07-05, 02:33:04,VALID,1003.76,VALID,0,VALID,84.9781,VALID,0,VALID,26.7804,VALID,89,VALID,0.0347656,
2010-07-05, 02:34:04,VALID,1003.78,VALID,0,VALID,85.0849,VALID,0,VALID,26.7609,VALID,89,VALID,0.362109,
2010-07-05, 02:35:04,VALID,1003.8,VALID,0,VALID,85.1765,VALID,0,VALID,26.7609,VALID,80,VALID,0.907031,
2010-07-05, 02:36:04,VALID,1003.8,VALID,0,VALID,85.0773,VALID,0,VALID,26.7609,VALID,55,VALID,0.289063,
2010-07-05, 02:37:04,VALID,1003.8,VALID,0,VALID,85.1765,VALID,0,VALID,26.7609,VALID,75,VALID,0.689453,
2010-07-05, 02:38:04,VALID,1003.75,VALID,0,VALID,85.1459,VALID,0,VALID,26.7394,VALID,63,VALID,0.525781,
2010-07-05, 02:39:04,VALID,1003.73,VALID,0,VALID,85.0925,VALID,0,VALID,26.7589,VALID,77,VALID,1.05117,
2010-07-05, 02:40:04,VALID,1003.72,VALID,0,VALID,85.001,VALID,0,VALID,26.7783,VALID,54,VALID,0.505078,
2010-07-05, 02:41:04,VALID,1003.72,VALID,0,VALID,84.9094,VALID,0,VALID,26.8193,VALID,43,VALID,0.458203,
2010-07-05, 02:42:04,VALID,1003.76,VALID,0,VALID,84.9018,VALID,0,VALID,26.8193,VALID,59,VALID,0.907031,
2010-07-05, 02:43:04,VALID,1003.77,VALID,0,VALID,84.9323,VALID,0,VALID,26.7783,VALID,48,VALID,0.829687,
2010-07-05, 02:44:04,VALID,1003.73,VALID,0,VALID,84.8637,VALID,0,VALID,26.8193,VALID,64,VALID,1.49688,
2010-07-05, 02:45:04,VALID,1003.69,VALID,0,VALID,84.7797,VALID,0,VALID,26.8583,VALID,97,VALID,1.58047,
2010-07-05, 02:46:04,VALID,1003.65,VALID,0,VALID,84.5051,VALID,0,VALID,26.9342,VALID,74,VALID,0.701172,
2010-07-05, 02:47:04,VALID,1003.65,VALID,0,VALID,84.2534,VALID,0,VALID,26.9537,VALID,62,VALID,0.525,
2010-07-05, 02:48:04,VALID,1003.7,VALID,0,VALID,84.1847,VALID,0.100563,VALID,26.9732,VALID,60,VALID,0.540234,
2010-07-05, 02:49:04,VALID,1003.69,VALID,0,VALID,84.1466,VALID,0,VALID,26.9537,VALID,35,VALID,0.455469,
2010-07-05, 02:50:04,VALID,1003.69,VALID,0,VALID,84.1847,VALID,0,VALID,26.9342,VALID,32,VALID,0.101172,
2010-07-05, 02:51:04,VALID,1003.71,VALID,0,VALID,84.2839,VALID,0,VALID,26.9362,VALID,103,VALID,0.833984,
2010-07-05, 02:52:04,VALID,1003.74,VALID,0,VALID,84.3068,VALID,0.100563,VALID,26.8952,VALID,60,VALID,0.145703,
2010-07-05, 02:53:04,VALID,1003.75,VALID,0,VALID,84.5051,VALID,0,VALID,26.8973,VALID,76,VALID,0.528906,
2010-07-05, 02:54:04,VALID,1003.74,VALID,0,VALID,84.6653,VALID,0,VALID,26.8583,VALID,61,VALID,0.589453,
2010-07-05, 02:55:04,VALID,1003.71,VALID,0,VALID,84.7645,VALID,0.100563,VALID,26.8368,VALID,40,VALID,0.722266,
2010-07-05, 02:56:04,VALID,1003.67,VALID,0,VALID,84.8789,VALID,0,VALID,26.8173,VALID,27,VALID,1.26367,
2010-07-05, 02:57:04,VALID,1003.71,VALID,0,VALID,84.9094,VALID,0,VALID,26.7978,VALID,31,VALID,1.05,
2010-07-05, 02:58:04,VALID,1003.7,VALID,0,VALID,85.0696,VALID,0,VALID,26.7783,VALID,73,VALID,0.853906,
2010-07-05, 02:59:04,VALID,1003.66,VALID,0,VALID,85.0925,VALID,0,VALID,26.7783,VALID,80,VALID,0.926953,
2010-07-05, 03:00:04,VALID,1003.65,VALID,0,VALID,85.0391,VALID,0,VALID,26.7958,VALID,69,VALID,1.10391,
2010-07-05, 03:01:04,VALID,1003.67,VALID,0,VALID,84.7797,VALID,0,VALID,26.8563,VALID,84,VALID,1.92734,
2010-07-05, 03:02:04,VALID,1003.62,VALID,0,VALID,84.5738,VALID,0,VALID,26.9147,VALID,49,VALID,1.20625,
2010-07-05, 03:03:04,VALID,1003.62,VALID,0,VALID,84.4212,VALID,0,VALID,26.9557,VALID,97,VALID,0.353125,
2010-07-05, 03:04:04,VALID,1003.63,VALID,0,VALID,84.4212,VALID,0.100563,VALID,26.9362,VALID,107,VALID,0.78125,
2010-07-05, 03:05:04,VALID,1003.64,VALID,0,VALID,84.4364,VALID,0.100563,VALID,26.9147,VALID,95,VALID,1.30664,
2010-07-05, 03:06:04,VALID,1003.66,VALID,0,VALID,84.3449,VALID,0,VALID,26.9342,VALID,109,VALID,1.69141,
2010-07-05, 03:07:04,VALID,1003.66,VALID,0,VALID,84.261,VALID,0,VALID,26.9752,VALID,88,VALID,0.582422,
2010-07-05, 03:08:04,VALID,1003.63,VALID,0,VALID,84.2839,VALID,0,VALID,26.9342,VALID,76,VALID,0.927734,
2010-07-05, 03:09:04,VALID,1003.64,VALID,0,VALID,84.3144,VALID,0,VALID,26.9557,VALID,100,VALID,1.09414,
2010-07-05, 03:10:04,VALID,1003.65,VALID,0,VALID,84.116,VALID,0.100563,VALID,26.9926,VALID,81,VALID,2.00586,
2010-07-05, 03:11:04,VALID,1003.61,VALID,0,VALID,83.8719,VALID,0.100563,VALID,27.0316,VALID,106,VALID,1.6375,
2010-07-05, 03:12:04,VALID,1003.68,VALID,0,VALID,83.6736,VALID,0,VALID,27.0706,VALID,66,VALID,0.707031,
2010-07-05, 03:13:04,VALID,1003.67,VALID,0,VALID,83.6278,VALID,0,VALID,27.0706,VALID,62,VALID,1.38242,
2010-07-05, 03:14:04,VALID,1003.68,VALID,0,VALID,83.5057,VALID,0,VALID,27.1095,VALID,72,VALID,0.678516,
2010-07-05, 03:15:04,VALID,1003.68,VALID,0,VALID,83.5057,VALID,0,VALID,27.1311,VALID,75,VALID,1.33008,
2010-07-05, 03:16:04,VALID,1003.7,VALID,0,VALID,83.4905,VALID,0,VALID,27.1116,VALID,97,VALID,0.6375,
2010-07-05, 03:17:04,VALID,1003.73,VALID,0,VALID,83.5134,VALID,0,VALID,27.1136,VALID,105,VALID,0.872656,
2010-07-05, 03:18:04,VALID,1003.69,VALID,0,VALID,83.5668,VALID,0,VALID,27.1116,VALID,101,VALID,0.924609,
2010-07-05, 03:19:04,VALID,1003.71,VALID,0,VALID,83.6049,VALID,0,VALID,27.1136,VALID,85,VALID,1.09336,
2010-07-05, 03:20:04,VALID,1003.71,VALID,0,VALID,83.5439,VALID,0,VALID,27.1526,VALID,88,VALID,1.01914,
2010-07-05, 03:21:04,VALID,1003.71,VALID,0,VALID,83.5057,VALID,0,VALID,27.1116,VALID,77,VALID,0.211719,
2010-07-05, 03:22:04,VALID,1003.75,VALID,0,VALID,83.582,VALID,0,VALID,27.1331,VALID,66,VALID,0.661328,
2010-07-05, 03:23:04,VALID,1003.73,VALID,0,VALID,83.6202,VALID,0,VALID,27.1116,VALID,112,VALID,1.03633,
2010-07-05, 03:24:04,VALID,1003.76,VALID,0,VALID,83.582,VALID,0,VALID,27.1311,VALID,67,VALID,0.901953,
2010-07-05, 03:25:04,VALID,1003.72,VALID,0,VALID,83.4752,VALID,0,VALID,27.1506,VALID,103,VALID,1.36016,
2010-07-05, 03:26:04,VALID,1003.73,VALID,0,VALID,83.2921,VALID,0,VALID,27.209,VALID,99,VALID,1.04922,
2010-07-05, 03:27:04,VALID,1003.73,VALID,0,VALID,83.0556,VALID,0,VALID,27.248,VALID,77,VALID,0.461719,
2010-07-05, 03:28:04,VALID,1003.69,VALID,0,VALID,82.9488,VALID,0,VALID,27.248,VALID,85,VALID,0.127344,
2010-07-05, 03:29:04,VALID,1003.71,VALID,0,VALID,82.987,VALID,0,VALID,27.2675,VALID,74,VALID,0.314453,
2010-07-05, 03:30:04,VALID,1003.68,VALID,0,VALID,82.9946,VALID,0,VALID,27.248,VALID,91,VALID,1.0125,
2010-07-05, 03:31:04,VALID,1003.71,VALID,0,VALID,83.0175,VALID,0.100563,VALID,27.2459,VALID,100,VALID,1.17773,
2010-07-05, 03:32:04,VALID,1003.67,VALID,0,VALID,82.9412,VALID,0,VALID,27.2654,VALID,96,VALID,0.967969,
2010-07-05, 03:33:04,VALID,1003.65,VALID,0,VALID,82.8191,VALID,0,VALID,27.2849,VALID,102,VALID,0.768359,
2010-07-05, 03:34:04,VALID,1003.64,VALID,0,VALID,82.7199,VALID,0.100563,VALID,27.2849,VALID,42,VALID,0.723047,
2010-07-05, 03:35:04,VALID,1003.65,VALID,0,VALID,82.8496,VALID,0,VALID,27.2654,VALID,19,VALID,0.713281,
2010-07-05, 03:36:04,VALID,1003.62,VALID,0,VALID,83.0861,VALID,0,VALID,27.2069,VALID,13,VALID,0.451562,
2010-07-05, 03:37:04,VALID,1003.6,VALID,0,VALID,83.2463,VALID,0,VALID,27.1659,VALID,68,VALID,0.502344,
2010-07-05, 03:38:04,VALID,1003.61,VALID,0,VALID,83.2845,VALID,0.100563,VALID,27.2069,VALID,116,VALID,1.10859,
2010-07-05, 03:39:04,VALID,1003.56,VALID,0,VALID,83.2006,VALID,0,VALID,27.2285,VALID,86,VALID,0.229687,
2010-07-05, 03:40:04,VALID,1003.55,VALID,0,VALID,83.2158,VALID,0,VALID,27.209,VALID,24,VALID,1.01055,
2010-07-05, 03:41:04,VALID,1003.51,VALID,0,VALID,83.1701,VALID,0,VALID,27.209,VALID,44,VALID,1.07148,
2010-07-05, 03:42:04,VALID,1003.51,VALID,0,VALID,83.1929,VALID,0,VALID,27.1875,VALID,73,VALID,1.1832,
2010-07-05, 03:43:04,VALID,1003.49,VALID,0,VALID,83.1929,VALID,0,VALID,27.1875,VALID,93,VALID,0.415234,